DELTA 1 DEB

Satellite information

Favourite Embed

Satellite Type and Status

DEBRISIN ORBIT

Key statistics

Satellite DELTA 1 DEB at a glance.

Uptime

18990

Days in orbit

Revolutions

≈ 12.2

Per day

Orbit

SSO

Sun Synchronous Orbit

Inclination

102.8

Latest

Satellite identification and parameters

Extended collection of information and parameters for DELTA 1 DEB.

Object identification

Identified? True

Debris? True

Object name: DELTA 1 DEB

International designator: 1973-086DR

Object number (NORAD): 7151

Object ID (CCSDS): 7151

Country: UNITED STATES OF AMERICA (US)

Current information (Y/N): Y

RCS size: SMALL

Orbital parameters

Period: 118.242 minutes

Inclination: 102.7521 deg

SMA: 7980.113 km

Apoapsis: 1726.013 km

Periapsis: 1477.943 km

RAAN: 70.1488 deg

Eccentricy: 0.01554302

Argument of periapsis: 127.669 deg

Mean anomaly: 291.039 deg

Mean motion: 12.1783704 rev/day

Mean motion (dot): 0.00000007 rev/day2

B* drag term: 0.00049548349 1/REarth

Two-line elements (TLE)

Creation date: Nov. 1, 2025, 7:40 p.m.

Reference frame: TEME

Reference center: EARTH

Epoch: Nov. 1, 2025, 6:50 a.m. UTC

TLE line 0: 0 DELTA 1 DEB

TLE line 1: 1 07151U 73086DR 25305.28491625 .00000007 00000-0 49548-3 0 9990

TLE line 2: 2 07151 102.7521 70.1488 0155430 127.6690 291.0390 12.17837040306636

Live tracking on map

Real-time ground track for satellite DELTA 1 DEB.

In-orbit conjunctions

A list of the most updated potential collisions computed for object DELTA 1 DEB.

Target Orbit TCA Probability of collision Miss distance Type
COSMOS 567 LEO 2025-01-23 17:23:02 0.0003615591 239.0 (m) PAYLOAD
COSMOS 2014 LEO 2024-07-08 01:55:39 0.0001719136 87.0 (m) PAYLOAD

Associated space launch

Meteorological satellite using radiometric imaging

DELTA 1 DEB was lifted into orbit during the mission ‘Delta 0300 | NOAA 3’, on board a Delta 0300 space rocket.

The launch took place on Nov. 6, 1973, 5:02 p.m. from Space Launch Complex 2W.

For more information about the launch, click the button.

Launch to space Delta 0300 | NOAA 3
Delta 0300 | NOAA 3

Agency: N/A

Status: Launch Successful

Launch date: Nov. 6, 1973, 5:02 p.m. UTC

Rocket: Delta 0300

Launch pad: Space Launch Complex 2W

Location: Vandenberg SFB, CA, USA

...

Latest news about this satellite

There are no fresh news available about this satellite. Check back as we update our databases every day.


Newsletter sign-up

Weekly statistics, charts and insights to help you stay on top of the space industry.